QPF
0.08 0.06 0.04 0.04 0.05 0.07 0.07 0.07 0.06 0.04 0.04 0.04 0.04 0.05 0.04 0.04 0.03 0.04 0.03 0.03 0.03 0.03 0.03 0.03 0.03 0.04 0.05 0.05 0.06 0.05 0.05 0.05 0.06 0.05 0.04 0.03 0.03 0.02 0.03 0.03 0.02 0.02 0.02
0.08 0.06 0.05 0.06 0.08 0.09 0.08 0.08 0.07 0.04 0.03 0.03 0.03 0.03 0.04 0.05 0.05 0.05 0.05 0.04 0.04 0.04 0.04 0.04 0.04 0.04 0.04 0.05 0.05 0.05 0.05 0.04 0.04 0.05 0.05 0.04 0.04 0.03 0.03 0.04 0.03 0.02 0.01
0.09 0.06 0.06 0.08 0.07 0.08 0.07 0.05 0.05 0.04 0.04 0.03 0.03 0.04 0.04 0.05 0.05 0.06 0.06 0.06 0.06 0.05 0.05 0.05 0.05 0.05 0.06 0.06 0.05 0.05 0.05 0.04 0.05 0.05 0.06 0.05 0.05 0.04 0.03 0.03 0.04 0.03 0.02
0.08 0.07 0.06 0.07 0.07 0.09 0.09 0.06 0.04 0.04 0.04 0.04 0.04 0.04 0.04 0.05 0.05 0.05 0.06 0.06 0.07 0.07 0.07 0.06 0.05 0.05 0.06 0.06 0.05 0.05 0.05 0.05 0.05 0.05 0.05 0.05 0.05 0.04 0.04 0.03 0.03 0.05 0.03
0.09 0.08 0.08 0.07 0.08 0.09 0.08 0.08 0.06 0.06 0.06 0.06 0.06 0.05 0.04 0.04 0.04 0.05 0.05 0.06 0.06 0.06 0.06 0.05 0.05 0.05 0.05 0.05 0.05 0.04 0.04 0.05 0.06 0.06 0.05 0.04 0.03 0.03 0.03 0.03 0.03 0.04 0.05
0.09 0.08 0.08 0.09 0.10 0.09 0.09 0.09 0.09 0.08 0.08 0.08 0.07 0.06 0.05 0.05 0.05 0.06 0.05 0.05 0.05 0.06 0.06 0.05 0.05 0.05 0.04 0.04 0.04 0.04 0.04 0.04 0.05 0.04 0.04 0.04 0.03 0.02 0.02 0.02 0.03 0.04 0.05
0.09 0.09 0.09 0.09 0.10 0.12 0.11 0.10 0.09 0.09 0.10 0.10 0.09 0.08 0.08 0.08 0.08 0.07 0.07 0.06 0.05 0.05 0.05 0.05 0.05 0.04 0.04 0.03 0.03 0.03 0.03 0.03 0.03 0.03 0.03 0.02 0.02 0.02 0.02 0.03 0.03 0.03 0.04
0.07 0.08 0.08 0.09 0.09 0.11 0.12 0.11 0.10 0.10 0.10 0.10 0.09 0.08 0.08 0.08 0.08 0.07 0.07 0.05 0.04 0.03 0.03 0.03 0.04 0.03 0.03 0.03 0.03 0.03 0.03 0.02 0.02 0.02 0.02 0.02 0.02 0.03 0.04 0.05 0.04 0.04 0.04
0.05 0.06 0.06 0.06 0.07 0.08 0.09 0.10 0.10 0.10 0.09 0.09 0.08 0.08 0.07 0.07 0.07 0.06 0.05 0.04 0.03 0.03 0.03 0.03 0.03 0.03 0.03 0.04 0.04 0.03 0.03 0.03 0.03 0.02 0.03 0.03 0.03 0.02 0.02 0.05 0.06 0.07 0.06
0.03 0.03 0.04 0.04 0.04 0.04 0.05 0.06 0.07 0.07 0.07 0.07 0.06 0.06 0.05 0.05 0.05 0.04 0.03 0.02 0.02 0.02 0.03 0.04 0.04 0.03 0.04 0.04 0.04 0.04 0.04 0.04 0.03 0.03 0.02 0.02 0.02 0.02 0.03 0.04 0.05 0.07 0.07
0.02 0.01 0.02 0.02 0.02 0.02 0.03 0.04 0.04 0.05 0.06 0.06 0.06 0.05 0.05 0.04 0.04 0.04 0.03 0.02 0.02 0.02 0.02 0.03 0.03 0.04 0.04 0.04 0.05 0.05 0.05 0.05 0.04 0.03 0.02 0.02 0.02 0.02 0.04 0.04 0.05 0.06 0.07
0.02 0.02 0.02 0.02 0.01 0.02 0.02 0.03 0.03 0.03 0.04 0.05 0.05 0.04 0.04 0.04 0.04 0.03 0.02 0.02 0.02 0.02 0.02 0.03 0.04 0.05 0.04 0.04 0.05 0.05 0.05 0.05 0.03 0.03 0.02 0.02 0.02 0.03 0.04 0.05 0.05 0.06 0.06
0.02 0.02 0.02 0.02 0.02 0.02 0.02 0.03 0.03 0.03 0.04 0.04 0.04 0.04 0.03 0.03 0.03 0.03 0.02 0.02 0.02 0.02 0.02 0.03 0.04 0.04 0.04 0.04 0.05 0.06 0.06 0.06 0.04 0.04 0.03 0.03 0.03 0.03 0.04 0.05 0.05 0.05 0.06
0.03 0.02 0.03 0.03 0.03 0.04 0.03 0.03 0.03 0.03 0.03 0.03 0.03 0.03 0.03 0.02 0.02 0.02 0.02 0.02 0.01 0.02 0.02 0.03 0.04 0.04 0.05 0.05 0.05 0.05 0.06 0.07 0.07 0.05 0.04 0.03 0.03 0.03 0.04 0.05 0.06 0.06 0.06
0.03 0.03 0.03 0.03 0.04 0.04 0.05 0.05 0.04 0.04 0.04 0.04 0.03 0.03 0.02 0.02 0.02 0.03 0.02 0.02 0.02 0.02 0.03 0.04 0.04 0.04 0.04 0.05 0.05 0.04 0.05 0.06 0.07 0.07 0.06 0.05 0.04 0.04 0.04 0.05 0.06 0.07 0.06
0.03 0.03 0.04 0.05 0.04 0.05 0.05 0.06 0.06 0.06 0.06 0.06 0.05 0.04 0.03 0.03 0.03 0.03 0.03 0.03 0.02 0.03 0.04 0.04 0.04 0.03 0.03 0.04 0.04 0.05 0.04 0.04 0.05 0.05 0.05 0.06 0.06 0.06 0.04 0.04 0.05 0.06 0.07
0.03 0.03 0.04 0.05 0.05 0.05 0.05 0.05 0.06 0.07 0.08 0.08 0.07 0.06 0.05 0.04 0.04 0.03 0.03 0.03 0.03 0.04 0.03 0.03 0.04 0.03 0.03 0.03 0.03 0.04 0.04 0.04 0.03 0.03 0.04 0.04 0.04 0.05 0.06 0.05 0.04 0.04 0.07
0.04 0.04 0.05 0.06 0.06 0.06 0.06 0.05 0.05 0.05 0.07 0.07 0.07 0.06 0.06 0.05 0.04 0.03 0.03 0.03 0.03 0.03 0.03 0.02 0.03 0.04 0.03 0.03 0.03 0.03 0.03 0.03 0.03 0.03 0.03 0.03 0.03 0.04 0.05 0.05 0.05 0.04 0.04
0.06 0.06 0.06 0.07 0.06 0.06 0.06 0.05 0.05 0.04 0.05 0.05 0.06 0.06 0.06 0.05 0.04 0.04 0.03 0.03 0.03 0.03 0.03 0.02 0.03 0.03 0.04 0.04 0.03 0.04 0.04 0.03 0.03 0.02 0.02 0.02 0.03 0.03 0.04 0.04 0.04 0.05 0.05
0.06 0.06 0.06 0.06 0.06 0.06 0.06 0.06 0.06 0.06 0.05 0.05 0.04 0.04 0.04 0.04 0.04 0.04 0.03 0.03 0.02 0.02 0.03 0.03 0.03 0.04 0.04 0.04 0.04 0.04 0.04 0.03 0.03 0.02 0.02 0.02 0.02 0.03 0.03 0.04 0.04 0.04 0.04
0.05 0.05 0.06 0.06 0.05 0.05 0.05 0.05 0.06 0.06 0.05 0.04 0.03 0.03 0.03 0.03 0.03 0.03 0.04 0.03 0.03 0.03 0.03 0.04 0.04 0.04 0.04 0.04 0.04 0.04 0.03 0.03 0.03 0.03 0.02 0.02 0.02 0.02 0.03 0.04 0.04 0.04 0.04
0.04 0.05 0.05 0.05 0.05 0.05 0.05 0.04 0.04 0.04 0.04 0.04 0.04 0.04 0.03 0.03 0.03 0.03 0.04 0.04 0.04 0.03 0.04 0.04 0.03 0.03 0.04 0.04 0.04 0.04 0.03 0.03 0.02 0.02 0.02 0.02 0.02 0.02 0.02 0.03 0.03 0.03 0.04
0.02 0.04 0.05 0.06 0.06 0.06 0.05 0.04 0.04 0.04 0.04 0.04 0.04 0.04 0.03 0.03 0.03 0.03 0.04 0.04 0.03 0.03 0.03 0.03 0.03 0.03 0.03 0.03 0.03 0.03 0.03 0.02 0.02 0.02 0.02 0.02 0.02 0.02 0.02 0.02 0.03 0.03 0.03
0.02 0.03 0.04 0.05 0.05 0.05 0.05 0.05 0.04 0.04 0.04 0.04 0.04 0.04 0.03 0.03 0.03 0.03 0.03 0.03 0.03 0.02 0.02 0.02 0.02 0.02 0.02 0.02 0.02 0.02 0.02 0.02 0.02 0.02 0.02 0.02 0.02 0.02 0.03 0.02 0.02 0.02 0.02
0.02 0.03 0.03 0.04 0.04 0.04 0.04 0.04 0.04 0.04 0.04 0.03 0.03 0.03 0.03 0.03 0.02 0.02 0.02 0.02 0.02 0.02 0.02 0.02 0.02 0.01 0.01 0.01 0.01 0.02 0.02 0.02 0.02 0.02 0.02 0.03 0.03 0.03 0.03 0.02 0.02 0.02 0.02
0.03 0.03 0.03 0.03 0.04 0.04 0.03 0.03 0.03 0.03 0.03 0.03 0.02 0.03 0.03 0.03 0.02 0.02 0.02 0.02 0.02 0.02 0.02 0.02 0.01 0.01 0.01 0.01 0.01 0.01 0.02 0.02 0.02 0.02 0.03 0.03 0.03 0.03 0.02 0.02 0.02 0.02 0.01
MSLP
1005.71 1005.81 1005.92 1006.02 1006.11 1006.21 1006.34 1006.51 1006.75 1007.06 1007.43 1007.86 1008.30 1008.74 1009.15 1009.51 1009.80 1010.02 1010.19 1010.30 1010.39 1010.46 1010.51 1010.56 1010.58 1010.58 1010.54 1010.45 1010.31 1010.13 1009.93 1009.74 1009.58 1009.52 1009.57 1009.78 1010.16 1010.73 1011.47 1012.36 1013.37 1014.44 1015.51
1006.05 1006.10 1006.15 1006.20 1006.23 1006.27 1006.33 1006.43 1006.59 1006.82 1007.12 1007.47 1007.86 1008.25 1008.62 1008.95 1009.21 1009.40 1009.54 1009.63 1009.70 1009.75 1009.80 1009.86 1009.92 1009.97 1010.00 1009.98 1009.93 1009.83 1009.70 1009.57 1009.48 1009.45 1009.55 1009.80 1010.23 1010.86 1011.66 1012.63 1013.70 1014.84 1015.97
1006.26 1006.26 1006.27 1006.27 1006.28 1006.28 1006.29 1006.34 1006.44 1006.60 1006.82 1007.10 1007.42 1007.75 1008.06 1008.33 1008.54 1008.70 1008.81 1008.87 1008.92 1008.96 1009.02 1009.09 1009.18 1009.27 1009.35 1009.41 1009.42 1009.39 1009.33 1009.27 1009.23 1009.26 1009.40 1009.71 1010.20 1010.89 1011.77 1012.81 1013.96 1015.17 1016.35
1006.32 1006.28 1006.26 1006.25 1006.23 1006.21 1006.20 1006.21 1006.26 1006.36 1006.51 1006.71 1006.95 1007.20 1007.44 1007.65 1007.82 1007.94 1008.03 1008.08 1008.12 1008.16 1008.23 1008.32 1008.44 1008.56 1008.69 1008.79 1008.85 1008.87 1008.86 1008.84 1008.85 1008.93 1009.13 1009.48 1010.03 1010.79 1011.74 1012.85 1014.07 1015.35 1016.60
1006.27 1006.19 1006.14 1006.11 1006.08 1006.05 1006.02 1006.00 1006.01 1006.05 1006.13 1006.26 1006.41 1006.58 1006.75 1006.91 1007.04 1007.14 1007.22 1007.28 1007.34 1007.40 1007.49 1007.61 1007.75 1007.90 1008.05 1008.17 1008.26 1008.31 1008.33 1008.34 1008.38 1008.50 1008.74 1009.14 1009.74 1010.55 1011.55 1012.73 1014.01 1015.34 1016.65
1006.09 1005.97 1005.90 1005.85 1005.80 1005.76 1005.72 1005.68 1005.65 1005.64 1005.66 1005.71 1005.79 1005.89 1006.00 1006.11 1006.22 1006.32 1006.40 1006.49 1006.58 1006.68 1006.81 1006.95 1007.11 1007.27 1007.42 1007.55 1007.64 1007.70 1007.74 1007.77 1007.84 1008.00 1008.27 1008.72 1009.36 1010.21 1011.25 1012.46 1013.78 1015.15 1016.51
1005.80 1005.64 1005.53 1005.45 1005.40 1005.35 1005.29 1005.23 1005.17 1005.12 1005.08 1005.06 1005.08 1005.11 1005.18 1005.26 1005.35 1005.45 1005.57 1005.69 1005.82 1005.96 1006.11 1006.28 1006.45 1006.61 1006.75 1006.86 1006.95 1007.01 1007.06 1007.12 1007.23 1007.43 1007.76 1008.25 1008.93 1009.81 1010.88 1012.10 1013.43 1014.81 1016.18
1005.38 1005.17 1005.02 1004.92 1004.84 1004.77 1004.71 1004.63 1004.55 1004.47 1004.39 1004.32 1004.28 1004.27 1004.29 1004.35 1004.43 1004.54 1004.67 1004.82 1004.98 1005.14 1005.31 1005.48 1005.63 1005.77 1005.89 1005.99 1006.07 1006.14 1006.22 1006.33 1006.51 1006.78 1007.18 1007.74 1008.48 1009.40 1010.48 1011.69 1013.01 1014.37 1015.72
1004.82 1004.56 1004.37 1004.23 1004.14 1004.06 1003.98 1003.90 1003.81 1003.71 1003.60 1003.50 1003.43 1003.38 1003.37 1003.40 1003.46 1003.56 1003.69 1003.84 1003.99 1004.14 1004.29 1004.42 1004.53 1004.63 1004.71 1004.79 1004.87 1004.98 1005.12 1005.32 1005.60 1006.00 1006.52 1007.20 1008.02 1008.98 1010.08 1011.29 1012.57 1013.88 1015.18
1004.15 1003.84 1003.60 1003.43 1003.31 1003.22 1003.14 1003.06 1002.97 1002.86 1002.75 1002.63 1002.53 1002.45 1002.41 1002.40 1002.43 1002.50 1002.59 1002.69 1002.79 1002.88 1002.96 1003.01 1003.05 1003.08 1003.12 1003.18 1003.28 1003.44 1003.68 1004.02 1004.47 1005.04 1005.74 1006.57 1007.52 1008.57 1009.71 1010.90 1012.14 1013.38 1014.60
1003.40 1003.03 1002.74 1002.53 1002.39 1002.28 1002.21 1002.13 1002.05 1001.95 1001.84 1001.72 1001.60 1001.49 1001.41 1001.36 1001.34 1001.34 1001.35 1001.36 1001.36 1001.34 1001.30 1001.23 1001.17 1001.11 1001.09 1001.13 1001.26 1001.51 1001.89 1002.41 1003.08 1003.88 1004.81 1005.84 1006.96 1008.13 1009.33 1010.54 1011.74 1012.90 1014.03
1002.63 1002.20 1001.86 1001.60 1001.42 1001.30 1001.22 1001.15 1001.08 1000.99 1000.89 1000.76 1000.63 1000.50 1000.38 1000.27 1000.17 1000.08 999.98 999.87 999.73 999.56 999.37 999.16 998.96 998.80 998.71 998.74 998.92 999.27 999.82 1000.55 1001.46 1002.53 1003.72 1005.00 1006.32 1007.65 1008.94 1010.19 1011.36 1012.47 1013.51
1001.88 1001.39 1000.99 1000.68 1000.47 1000.32 1000.22 1000.15 1000.07 999.99 999.89 999.76 999.62 999.46 999.30 999.13 998.95 998.76 998.54 998.29 998.00 997.67 997.31 996.95 996.61 996.35 996.20 996.22 996.45 996.91 997.62 998.57 999.73 1001.08 1002.55 1004.08 1005.62 1007.12 1008.53 1009.83 1011.02 1012.08 1013.05
1001.20 1000.65 1000.18 999.82 999.55 999.36 999.23 999.13 999.04 998.95 998.84 998.70 998.54 998.36 998.16 997.94 997.69 997.41 997.09 996.72 996.29 995.82 995.32 994.82 994.36 994.01 993.81 993.83 994.11 994.67 995.53 996.67 998.07 999.66 1001.37 1003.14 1004.89 1006.56 1008.10 1009.48 1010.69 1011.75 1012.68
1000.61 999.99 999.47 999.04 998.70 998.45 998.26 998.12 997.99 997.87 997.73 997.58 997.40 997.20 996.98 996.72 996.44 996.10 995.72 995.27 994.75 994.19 993.59 993.01 992.48 992.07 991.85 991.87 992.19 992.83 993.80 995.09 996.65 998.43 1000.33 1002.29 1004.20 1006.01 1007.66 1009.12 1010.38 1011.46 1012.39
1000.09 999.42 998.83 998.33 997.92 997.59 997.33 997.12 996.93 996.76 996.59 996.41 996.22 996.01 995.78 995.53 995.24 994.90 994.51 994.05 993.52 992.94 992.32 991.72 991.18 990.77 990.55 990.59 990.94 991.63 992.66 994.03 995.68 997.55 999.55 1001.61 1003.62 1005.52 1007.25 1008.77 1010.09 1011.20 1012.15
999.61 998.90 998.26 997.69 997.20 996.79 996.45 996.16 995.91 995.67 995.46 995.25 995.04 994.84 994.63 994.41 994.16 993.87 993.54 993.14 992.67 992.15 991.60 991.06 990.57 990.21 990.02 990.10 990.47 991.17 992.21 993.58 995.23 997.10 999.10 1001.16 1003.19 1005.11 1006.87 1008.43 1009.79 1010.96 1011.95
999.13 998.39 997.70 997.08 996.54 996.06 995.64 995.27 994.95 994.66 994.39 994.16 993.95 993.76 993.59 993.43 993.25 993.06 992.83 992.55 992.22 991.83 991.41 990.99 990.62 990.35 990.25 990.36 990.75 991.44 992.44 993.74 995.30 997.08 998.99 1000.97 1002.93 1004.80 1006.53 1008.10 1009.48 1010.69 1011.74
998.60 997.86 997.16 996.51 995.92 995.39 994.92 994.49 994.11 993.78 993.48 993.23 993.03 992.87 992.74 992.65 992.58 992.50 992.41 992.28 992.11 991.90 991.66 991.42 991.20 991.06 991.05 991.23 991.63 992.29 993.21 994.39 995.81 997.42 999.17 1000.98 1002.80 1004.56 1006.22 1007.75 1009.13 1010.38 1011.50
998.04 997.31 996.62 995.97 995.38 994.83 994.33 993.88 993.47 993.11 992.80 992.55 992.36 992.23 992.16 992.14 992.15 992.19 992.24 992.27 992.28 992.25 992.20 992.14 992.09 992.10 992.20 992.44 992.86 993.47 994.30 995.34 996.58 997.99 999.52 1001.12 1002.76 1004.36 1005.91 1007.38 1008.75 1010.01 1011.19
997.46 996.76 996.11 995.50 994.93 994.40 993.91 993.47 993.07 992.71 992.41 992.17 992.01 991.91 991.88 991.91 992.00 992.13 992.28 992.44 992.59 992.72 992.84 992.95 993.07 993.22 993.43 993.74 994.16 994.74 995.48 996.38 997.44 998.63 999.94 1001.33 1002.75 1004.19 1005.62 1007.00 1008.34 1009.62 1010.84
996.92 996.28 995.69 995.13 994.62 994.14 993.70 993.29 992.93 992.61 992.34 992.13 991.99 991.91 991.91 991.97 992.10 992.27 992.48 992.72 992.96 993.20 993.44 993.68 993.93 994.19 994.50 994.87 995.32 995.88 996.54 997.32 998.22 999.23 1000.34 1001.52 1002.77 1004.05 1005.34 1006.65 1007.94 1009.22 1010.48
996.51 995.93 995.40 994.92 994.47 994.07 993.70 993.36 993.06 992.79 992.57 992.40 992.29 992.23 992.23 992.30 992.42 992.59 992.80 993.05 993.32 993.61 993.91 994.23 994.56 994.91 995.29 995.71 996.19 996.74 997.36 998.07 998.85 999.72 1000.68 1001.70 1002.80 1003.94 1005.14 1006.37 1007.62 1008.90 1010.18
996.29 995.76 995.29 994.88 994.51 994.18 993.88 993.62 993.40 993.20 993.04 992.91 992.83 992.78 992.78 992.83 992.91 993.04 993.21 993.42 993.67 993.94 994.25 994.59 994.95 995.35 995.78 996.26 996.77 997.33 997.94 998.61 999.34 1000.12 1000.98 1001.90 1002.88 1003.93 1005.05 1006.22 1007.44 1008.70 1009.99
996.27 995.78 995.37 995.00 994.70 994.43 994.21 994.03 993.87 993.75 993.65 993.57 993.52 993.49 993.48 993.49 993.53 993.59 993.69 993.83 994.01 994.24 994.51 994.83 995.20 995.62 996.09 996.60 997.15 997.74 998.37 999.03 999.74 1000.49 1001.30 1002.16 1003.08 1004.07 1005.13 1006.26 1007.44 1008.68 1009.96
996.44 995.98 995.59 995.26 995.00 994.78 994.62 994.49 994.41 994.35 994.31 994.28 994.26 994.24 994.23 994.21 994.21 994.21 994.24 994.31 994.41 994.57 994.80 995.08 995.44 995.86 996.34 996.88 997.47 998.10 998.76 999.45 1000.17 1000.92 1001.71 1002.55 1003.44 1004.39 1005.42 1006.50 1007.66 1008.86 1010.11
Thickness
5524 5526 5528 5530 5531 5533 5535 5537 5538 5538 5538 5538 5538 5537 5536 5536 5537 5537 5537 5537 5538 5538 5539 5540 5540 5539 5538 5538 5536 5535 5533 5532 5532 5532 5527 5525 5523 5522 5520 5517 5515 5512 5510
5513 5516 5519 5521 5522 5524 5526 5528 5529 5530 5531 5531 5530 5529 5529 5529 5529 5529 5529 5530 5531 5531 5531 5531 5531 5530 5529 5529 5527 5525 5523 5521 5521 5520 5518 5515 5513 5511 5509 5507 5504 5503 5500
5503 5506 5508 5511 5514 5515 5516 5518 5519 5522 5523 5522 5522 5523 5523 5522 5521 5522 5522 5522 5523 5523 5523 5523 5522 5521 5521 5519 5518 5516 5513 5511 5509 5509 5508 5505 5502 5500 5498 5496 5495 5493 5491
5491 5495 5498 5500 5503 5506 5507 5509 5510 5512 5514 5515 5515 5515 5515 5514 5513 5514 5514 5514 5513 5514 5514 5514 5514 5513 5512 5511 5508 5506 5503 5502 5499 5498 5497 5495 5492 5489 5487 5487 5486 5484 5482
5478 5482 5487 5490 5492 5495 5497 5500 5502 5503 5505 5506 5506 5506 5506 5506 5506 5506 5506 5505 5505 5505 5504 5504 5504 5503 5502 5501 5499 5497 5495 5493 5490 5488 5487 5485 5483 5480 5478 5477 5477 5476 5473
5467 5471 5474 5477 5481 5485 5488 5490 5493 5495 5496 5497 5498 5498 5498 5498 5497 5498 5497 5495 5496 5496 5495 5494 5493 5492 5491 5490 5488 5487 5485 5484 5483 5481 5479 5477 5476 5473 5469 5466 5465 5465 5467
5455 5458 5461 5465 5469 5474 5477 5480 5483 5486 5487 5487 5488 5488 5489 5489 5489 5489 5487 5486 5486 5487 5486 5485 5484 5482 5481 5480 5479 5477 5475 5474 5473 5472 5471 5469 5466 5464 5460 5458 5455 5454 5454
5443 5446 5449 5453 5458 5462 5465 5469 5472 5475 5477 5478 5478 5478 5479 5479 5479 5479 5478 5477 5477 5477 5476 5475 5474 5473 5473 5471 5471 5469 5468 5466 5464 5462 5462 5460 5457 5453 5451 5449 5446 5442 5442
5431 5434 5437 5441 5446 5450 5453 5457 5460 5462 5465 5467 5467 5468 5469 5469 5468 5469 5468 5467 5467 5467 5466 5465 5465 5464 5463 5461 5460 5459 5458 5456 5454 5452 5451 5449 5446 5444 5441 5438 5434 5433 5435
5421 5423 5426 5430 5434 5439 5442 5445 5447 5450 5453 5455 5456 5457 5458 5458 5458 5458 5458 5459 5458 5458 5457 5457 5456 5455 5453 5451 5450 5449 5448 5447 5445 5444 5442 5440 5438 5435 5432 5430 5427 5425 5425
5412 5414 5417 5420 5424 5428 5431 5434 5437 5439 5442 5444 5445 5446 5446 5447 5447 5448 5448 5449 5450 5449 5449 5448 5447 5445 5444 5442 5441 5441 5440 5438 5437 5435 5433 5431 5429 5427 5425 5422 5419 5417 5415
5404 5406 5409 5412 5416 5419 5422 5424 5426 5429 5431 5432 5433 5434 5435 5436 5436 5437 5438 5439 5440 5440 5440 5439 5438 5436 5435 5433 5432 5432 5430 5428 5427 5425 5424 5422 5420 5418 5416 5415 5412 5409 5406
5398 5400 5402 5405 5408 5410 5412 5414 5416 5418 5420 5421 5422 5423 5424 5425 5426 5426 5427 5429 5429 5430 5430 5429 5427 5426 5425 5423 5422 5421 5420 5419 5417 5416 5415 5413 5411 5409 5407 5406 5404 5401 5398
5391 5394 5396 5398 5400 5401 5403 5404 5406 5408 5410 5411 5412 5413 5414 5415 5417 5417 5418 5419 5419 5419 5419 5418 5417 5416 5415 5414 5412 5412 5411 5410 5409 5407 5406 5404 5402 5400 5399 5398 5396 5394 5391
5385 5387 5389 5390 5392 5394 5395 5396 5397 5399 5400 5402 5404 5405 5406 5407 5408 5408 5409 5409 5410 5410 5410 5409 5408 5407 5406 5405 5404 5403 5402 5400 5399 5397 5396 5395 5393 5392 5391 5390 5388 5387 5385
5379 5381 5382 5383 5384 5386 5387 5389 5389 5390 5391 5392 5394 5395 5397 5398 5399 5399 5399 5400 5400 5401 5401 5401 5400 5399 5397 5396 5395 5394 5393 5392 5390 5389 5388 5387 5385 5384 5383 5382 5380 5379 5378
5371 5373 5375 5376 5377 5378 5379 5380 5382 5382 5382 5383 5385 5386 5387 5388 5389 5389 5390 5390 5391 5392 5393 5392 5391 5390 5388 5387 5385 5384 5384 5382 5381 5380 5380 5379 5377 5376 5376 5375 5374 5373 5372
5363 5365 5367 5369 5370 5370 5371 5373 5374 5375 5375 5376 5377 5377 5378 5379 5380 5381 5381 5382 5382 5382 5383 5383 5382 5380 5379 5378 5377 5375 5374 5373 5372 5372 5372 5371 5370 5369 5369 5368 5368 5367 5367
5356 5358 5359 5360 5361 5362 5363 5364 5365 5365 5367 5368 5370 5370 5370 5371 5371 5372 5373 5374 5374 5373 5373 5373 5373 5372 5370 5370 5368 5367 5366 5365 5364 5364 5364 5363 5363 5362 5362 5362 5361 5361 5360
5349 5350 5351 5353 5354 5355 5356 5357 5357 5358 5359 5360 5361 5362 5362 5362 5363 5363 5363 5364 5364 5364 5364 5364 5363 5363 5362 5361 5360 5359 5358 5358 5357 5356 5356 5356 5356 5356 5356 5355 5355 5355 5354
5342 5343 5344 5346 5346 5347 5348 5349 5350 5350 5351 5352 5352 5353 5354 5355 5355 5355 5355 5355 5355 5355 5356 5356 5355 5355 5354 5354 5353 5353 5352 5351 5351 5350 5350 5350 5350 5349 5349 5349 5349 5348 5347
5335 5337 5338 5339 5340 5340 5341 5342 5342 5342 5343 5344 5344 5345 5345 5346 5347 5347 5347 5347 5347 5347 5347 5347 5347 5347 5347 5346 5346 5346 5346 5345 5345 5344 5344 5343 5343 5343 5343 5343 5343 5342 5341
5329 5330 5331 5332 5333 5334 5335 5335 5335 5335 5336 5336 5336 5337 5337 5338 5338 5339 5339 5339 5339 5339 5339 5339 5340 5339 5339 5339 5339 5340 5340 5339 5338 5338 5338 5338 5337 5337 5337 5336 5336 5335 5335
5322 5323 5324 5325 5326 5327 5328 5328 5328 5329 5329 5329 5329 5330 5330 5330 5331 5331 5331 5332 5332 5333 5333 5333 5333 5333 5333 5333 5333 5333 5332 5332 5332 5331 5331 5332 5332 5331 5331 5330 5330 5329 5329
5316 5317 5318 5319 5320 5321 5321 5321 5321 5322 5322 5322 5322 5323 5323 5323 5323 5324 5324 5325 5326 5326 5326 5326 5326 5326 5326 5326 5326 5326 5325 5325 5325 5325 5325 5326 5325 5325 5324 5324 5323 5323 5322
5311 5312 5312 5312 5313 5313 5314 5314 5315 5315 5315 5315 5316 5316 5317 5317 5317 5317 5318 5319 5319 5319 5319 5319 5319 5319 5319 5319 5319 5319 5319 5319 5320 5320 5319 5320 5319 5318 5318 5318 5317 5316 5315